GACFB EGPC-EGPE

Flight info

Callsign GACFB
Flight time 0h 44m
Altitude 4000
Route 5815N00332W 5804N00353W 5750N00408W/N0111F030
Aircraft C172/L-SDFG/C

Departure

Time 2026-04-20 18:56
Airport Wick John O'Groats Airport (EGPC)

Arrival

Time 2026-04-20 19:40
Airport Inverness Airport (EGPE)
Time Latitude Longitude Altitude Speed Heading
2026-04-20 18:39 58.45412 -3.08800 119 ft 0 kts 132°
2026-04-20 18:51 58.45411 -3.08798 119 ft 0 kts 131°
2026-04-20 18:52 58.45406 -3.08788 119 ft 3 kts 133°
2026-04-20 18:52 58.45401 -3.08769 119 ft 1 kts 74°
2026-04-20 18:52 58.45411 -3.08756 119 ft 5 kts
2026-04-20 18:52 58.45451 -3.08782 119 ft 4 kts 331°
2026-04-20 18:53 58.45490 -3.08773 119 ft 8 kts 49°
2026-04-20 18:53 58.45544 -3.08676 119 ft 0 kts 45°
2026-04-20 18:54 58.45556 -3.08648 118 ft 5 kts 50°
2026-04-20 18:54 58.45556 -3.08518 116 ft 15 kts 123°
2026-04-20 18:54 58.45527 -3.08438 114 ft 4 kts 124°
2026-04-20 18:54 58.45452 -3.08220 110 ft 28 kts 139°
2026-04-20 18:55 58.45401 -3.08098 107 ft 0 kts 305°
2026-04-20 18:55 58.45426 -3.08177 109 ft 31 kts 303°
2026-04-20 18:55 58.45693 -3.08760 203 ft 71 kts 310°
2026-04-20 18:55 58.46008 -3.09589 394 ft 85 kts 290°
2026-04-20 18:56 58.46010 -3.10775 585 ft 95 kts 248°
2026-04-20 18:56 58.45525 -3.11694 745 ft 104 kts 207°
2026-04-20 18:56 58.44852 -3.12344 914 ft 109 kts 210°
2026-04-20 18:56 58.44228 -3.13176 1088 ft 111 kts 219°
2026-04-20 18:57 58.43646 -3.14174 1265 ft 112 kts 224°
2026-04-20 18:57 58.43100 -3.15233 1439 ft 113 kts 226°
2026-04-20 18:57 58.42563 -3.16331 1614 ft 113 kts 227°
2026-04-20 18:57 58.42040 -3.17426 1787 ft 113 kts 227°
2026-04-20 18:58 58.41511 -3.18541 1954 ft 113 kts 228°
2026-04-20 18:58 58.40965 -3.19695 1997 ft 122 kts 228°
2026-04-20 18:58 58.40378 -3.20940 2001 ft 128 kts 228°
2026-04-20 18:58 58.39771 -3.22226 2001 ft 131 kts 228°
2026-04-20 18:59 58.39163 -3.23511 2092 ft 126 kts 228°
2026-04-20 18:59 58.38595 -3.24712 2262 ft 118 kts 228°
2026-04-20 18:59 58.38049 -3.25865 2435 ft 115 kts 228°
2026-04-20 18:59 58.37519 -3.26983 2607 ft 113 kts 228°
2026-04-20 19:00 58.36992 -3.28093 2781 ft 112 kts 228°
2026-04-20 19:00 58.36472 -3.29189 2955 ft 111 kts 228°
2026-04-20 19:00 58.35951 -3.30288 3131 ft 110 kts 228°
2026-04-20 19:00 58.35439 -3.31367 3305 ft 110 kts 228°
2026-04-20 19:01 58.34930 -3.32437 3479 ft 109 kts 228°
2026-04-20 19:01 58.34427 -3.33497 3652 ft 108 kts 228°
2026-04-20 19:01 58.33926 -3.34551 3826 ft 108 kts 228°
2026-04-20 19:01 58.33424 -3.35607 4001 ft 107 kts 228°
2026-04-20 19:02 58.32922 -3.36661 4176 ft 107 kts 228°
2026-04-20 19:02 58.32428 -3.37699 4349 ft 107 kts 228°
2026-04-20 19:02 58.32265 -3.38042 4406 ft 107 kts 228°
2026-04-20 19:02 58.31766 -3.39090 4580 ft 106 kts 228°
2026-04-20 19:03 58.31269 -3.40132 4755 ft 106 kts 228°
2026-04-20 19:03 58.30775 -3.41170 4929 ft 106 kts 228°
2026-04-20 19:03 58.30283 -3.42200 5103 ft 105 kts 228°
2026-04-20 19:03 58.29793 -3.43228 5277 ft 105 kts 228°
2026-04-20 19:04 58.29292 -3.44277 5388 ft 111 kts 228°
2026-04-20 19:04 58.28753 -3.45409 5402 ft 121 kts 228°
2026-04-20 19:04 58.28169 -3.46634 5402 ft 126 kts 228°
2026-04-20 19:04 58.27577 -3.47875 5401 ft 129 kts 228°
2026-04-20 19:05 58.26967 -3.49151 5400 ft 129 kts 228°
2026-04-20 19:05 58.26365 -3.50412 5400 ft 129 kts 228°
2026-04-20 19:05 58.25756 -3.51684 5399 ft 129 kts 228°
2026-04-20 19:05 58.25151 -3.52938 5400 ft 129 kts 227°
2026-04-20 19:06 58.24529 -3.54162 5400 ft 129 kts 226°
2026-04-20 19:06 58.23891 -3.55394 5399 ft 129 kts 226°
2026-04-20 19:06 58.23255 -3.56616 5399 ft 129 kts 225°
2026-04-20 19:06 58.22628 -3.57820 5399 ft 129 kts 225°
2026-04-20 19:07 58.21991 -3.59042 5399 ft 129 kts 225°
2026-04-20 19:07 58.21355 -3.60261 5399 ft 129 kts 225°
2026-04-20 19:07 58.20726 -3.61465 5399 ft 129 kts 225°
2026-04-20 19:07 58.20088 -3.62687 5399 ft 129 kts 225°
2026-04-20 19:08 58.19458 -3.63892 5399 ft 129 kts 225°
2026-04-20 19:08 58.18188 -3.66321 5399 ft 129 kts 225°
2026-04-20 19:08 58.17559 -3.67522 5399 ft 129 kts 225°
2026-04-20 19:09 58.16917 -3.68747 5399 ft 129 kts 225°
2026-04-20 19:09 58.16283 -3.69958 5399 ft 129 kts 225°
2026-04-20 19:09 58.15654 -3.71157 5399 ft 129 kts 225°
2026-04-20 19:09 58.15013 -3.72378 5399 ft 129 kts 225°
2026-04-20 19:10 58.14382 -3.73582 5399 ft 129 kts 225°
2026-04-20 19:10 58.13743 -3.74798 5399 ft 129 kts 225°
2026-04-20 19:10 58.13108 -3.76002 5399 ft 129 kts 224°
2026-04-20 19:10 58.12472 -3.77201 5400 ft 129 kts 224°
2026-04-20 19:11 58.11833 -3.78403 5399 ft 129 kts 224°
2026-04-20 19:11 58.11191 -3.79604 5399 ft 129 kts 224°
2026-04-20 19:11 58.10556 -3.80794 5400 ft 129 kts 224°
2026-04-20 19:11 58.09917 -3.81996 5399 ft 129 kts 224°
2026-04-20 19:12 58.09279 -3.83199 5399 ft 129 kts 225°
2026-04-20 19:12 58.08650 -3.84387 5399 ft 129 kts 225°
2026-04-20 19:12 58.08017 -3.85583 5399 ft 129 kts 225°
2026-04-20 19:12 58.07380 -3.86785 5399 ft 129 kts 225°
2026-04-20 19:13 58.06709 -3.87903 5399 ft 129 kts 214°
2026-04-20 19:13 58.05945 -3.88823 5400 ft 129 kts 211°
2026-04-20 19:13 58.05176 -3.89693 5400 ft 129 kts 210°
2026-04-20 19:13 58.04398 -3.90555 5400 ft 129 kts 210°
2026-04-20 19:14 58.03629 -3.91398 5399 ft 129 kts 210°
2026-04-20 19:14 58.02851 -3.92250 5399 ft 129 kts 210°
2026-04-20 19:14 58.02075 -3.93108 5399 ft 129 kts 210°
2026-04-20 19:14 58.01305 -3.93962 5399 ft 129 kts 210°
2026-04-20 19:15 58.00533 -3.94817 5399 ft 129 kts 210°
2026-04-20 19:15 57.99751 -3.95675 5400 ft 129 kts 210°
2026-04-20 19:15 57.98979 -3.96511 5399 ft 129 kts 210°
2026-04-20 19:15 57.98197 -3.97353 5399 ft 129 kts 209°
2026-04-20 19:16 57.97414 -3.98193 5399 ft 129 kts 209°
2026-04-20 19:16 57.96629 -3.99034 5399 ft 129 kts 209°
2026-04-20 19:16 57.95853 -3.99866 5399 ft 129 kts 209°
2026-04-20 19:16 57.95074 -4.00699 5399 ft 129 kts 209°
2026-04-20 19:17 57.94291 -4.01537 5399 ft 129 kts 209°
2026-04-20 19:17 57.93517 -4.02365 5399 ft 129 kts 209°
2026-04-20 19:17 57.92732 -4.03204 5399 ft 129 kts 209°
2026-04-20 19:17 57.91935 -4.04059 5231 ft 131 kts 210°
2026-04-20 19:18 57.91156 -4.04894 5058 ft 130 kts 210°
2026-04-20 19:18 57.90375 -4.05729 4882 ft 129 kts 210°
2026-04-20 19:18 57.89595 -4.06562 4706 ft 128 kts 210°
2026-04-20 19:18 57.88825 -4.07383 4532 ft 128 kts 210°
2026-04-20 19:19 57.88049 -4.08211 4356 ft 127 kts 210°
2026-04-20 19:19 57.87284 -4.09025 4182 ft 127 kts 210°
2026-04-20 19:19 57.86517 -4.09842 4030 ft 126 kts 210°
2026-04-20 19:19 57.85752 -4.10654 4001 ft 125 kts 209°
2026-04-20 19:20 57.85002 -4.11449 3976 ft 126 kts 209°
2026-04-20 19:20 57.84229 -4.12269 3951 ft 126 kts 209°
2026-04-20 19:20 57.83414 -4.12816 3924 ft 126 kts 188°
2026-04-20 19:20 57.82534 -4.12866 3900 ft 126 kts 176°
2026-04-20 19:21 57.81660 -4.12698 3875 ft 126 kts 172°
2026-04-20 19:21 57.80788 -4.12461 3848 ft 127 kts 171°
2026-04-20 19:21 57.79901 -4.12205 3586 ft 129 kts 171°
2026-04-20 19:21 57.79027 -4.11949 3311 ft 127 kts 171°
2026-04-20 19:22 57.78159 -4.11692 3035 ft 125 kts 171°
2026-04-20 19:22 57.77304 -4.11438 2760 ft 125 kts 171°
2026-04-20 19:22 57.76461 -4.11187 2487 ft 124 kts 171°
2026-04-20 19:22 57.75607 -4.10933 2210 ft 123 kts 171°
2026-04-20 19:23 57.74770 -4.10684 2025 ft 121 kts 171°
2026-04-20 19:23 57.73939 -4.10434 2002 ft 120 kts 171°
2026-04-20 19:23 57.73111 -4.10186 2000 ft 122 kts 171°
2026-04-20 19:23 57.72290 -4.09942 1997 ft 117 kts 171°
2026-04-20 19:24 57.71497 -4.09707 1998 ft 113 kts 171°
2026-04-20 19:24 57.70718 -4.09476 1999 ft 113 kts 171°
2026-04-20 19:24 57.69948 -4.09247 1999 ft 113 kts 171°
2026-04-20 19:24 57.69177 -4.09019 2000 ft 113 kts 171°
2026-04-20 19:25 57.68394 -4.08847 1996 ft 113 kts 182°
2026-04-20 19:25 57.67625 -4.08688 1996 ft 113 kts 155°
2026-04-20 19:25 57.67107 -4.07627 1997 ft 113 kts 112°
2026-04-20 19:25 57.66940 -4.06202 1998 ft 113 kts 94°
2026-04-20 19:26 57.67195 -4.04860 1997 ft 113 kts 49°
2026-04-20 19:26 57.67886 -4.04220 1997 ft 113 kts
2026-04-20 19:26 57.68611 -4.04651 1997 ft 113 kts 321°
2026-04-20 19:26 57.69027 -4.05879 2000 ft 113 kts 291°
2026-04-20 19:27 57.69247 -4.07292 1996 ft 113 kts 275°
2026-04-20 19:27 57.69134 -4.08746 2001 ft 116 kts 255°
2026-04-20 19:27 57.68813 -4.10125 1999 ft 118 kts 232°
2026-04-20 19:27 57.68270 -4.11298 2000 ft 119 kts 227°
2026-04-20 19:28 57.67660 -4.12324 2000 ft 119 kts 219°
2026-04-20 19:28 57.67013 -4.13288 2000 ft 119 kts 218°
2026-04-20 19:28 57.66356 -4.14257 1999 ft 119 kts 218°
2026-04-20 19:28 57.65697 -4.15184 1999 ft 119 kts 212°
2026-04-20 19:29 57.64982 -4.15953 2000 ft 119 kts 209°
2026-04-20 19:29 57.64263 -4.16703 2000 ft 119 kts 209°
2026-04-20 19:29 57.63540 -4.17456 1999 ft 119 kts 209°
2026-04-20 19:29 57.62812 -4.18213 1999 ft 119 kts 209°
2026-04-20 19:30 57.62095 -4.18980 1999 ft 119 kts 210°
2026-04-20 19:30 57.61372 -4.19737 1999 ft 119 kts 207°
2026-04-20 19:30 57.60601 -4.20270 1999 ft 119 kts 195°
2026-04-20 19:30 57.59799 -4.20653 2000 ft 119 kts 195°
2026-04-20 19:31 57.58999 -4.21051 1931 ft 120 kts 195°
2026-04-20 19:31 57.58251 -4.21425 1809 ft 102 kts 195°
2026-04-20 19:31 57.57578 -4.21757 1800 ft 99 kts 195°
2026-04-20 19:31 57.56906 -4.22089 1800 ft 101 kts 195°
2026-04-20 19:32 57.56225 -4.22452 1800 ft 102 kts 195°
2026-04-20 19:32 57.55532 -4.22689 1800 ft 102 kts 188°
2026-04-20 19:32 57.54829 -4.22825 1800 ft 102 kts 185°
2026-04-20 19:32 57.54142 -4.22933 1796 ft 95 kts 185°
2026-04-20 19:33 57.53493 -4.23032 1799 ft 93 kts 185°
2026-04-20 19:33 57.52849 -4.23130 1799 ft 93 kts 185°
2026-04-20 19:33 57.52206 -4.23160 1800 ft 93 kts 174°
2026-04-20 19:33 57.51636 -4.22747 1835 ft 89 kts 145°
2026-04-20 19:34 57.51188 -4.21971 1773 ft 95 kts 126°
2026-04-20 19:34 57.50980 -4.20773 1719 ft 94 kts 100°
2026-04-20 19:34 57.50921 -4.19621 1692 ft 93 kts 92°
2026-04-20 19:34 57.50822 -4.18437 1729 ft 70 kts 108°
2026-04-20 19:35 57.50658 -4.17752 1625 ft 67 kts 115°
2026-04-20 19:35 57.50570 -4.17374 1589 ft 59 kts 111°
2026-04-20 19:35 57.50508 -4.16952 1486 ft 64 kts 99°
2026-04-20 19:35 57.50547 -4.16148 1346 ft 62 kts 80°
2026-04-20 19:36 57.50560 -4.15341 1198 ft 61 kts 82°
2026-04-20 19:36 57.50623 -4.14556 1049 ft 62 kts 82°
2026-04-20 19:36 57.50700 -4.13764 900 ft 62 kts 82°
2026-04-20 19:36 57.50741 -4.13034 754 ft 58 kts 82°
2026-04-20 19:37 57.50843 -4.12327 603 ft 58 kts 70°
2026-04-20 19:37 57.51008 -4.11671 505 ft 58 kts 52°
2026-04-20 19:37 57.51261 -4.11131 471 ft 57 kts 45°
2026-04-20 19:37 57.51524 -4.10613 498 ft 55 kts 45°
2026-04-20 19:38 57.51782 -4.10083 555 ft 54 kts 47°
2026-04-20 19:38 57.52040 -4.09566 601 ft 54 kts 46°
2026-04-20 19:38 57.52300 -4.09056 616 ft 54 kts 46°
2026-04-20 19:38 57.52553 -4.08510 575 ft 57 kts 56°
2026-04-20 19:39 57.52793 -4.07917 464 ft 57 kts 50°
2026-04-20 19:39 57.53048 -4.07335 286 ft 59 kts 48°
2026-04-20 19:39 57.53314 -4.06774 140 ft 57 kts 47°
2026-04-20 19:39 57.53571 -4.06219 68 ft 55 kts 47°
2026-04-20 19:40 57.53802 -4.05706 31 ft 50 kts 51°
2026-04-20 19:40 57.54002 -4.05270 27 ft 36 kts 48°
2026-04-20 19:40 57.54171 -4.04915 27 ft 31 kts 76°
2026-04-20 19:40 57.54122 -4.04854 27 ft 13 kts 187°
2026-04-20 19:41 57.53998 -4.04894 27 ft 23 kts 179°
2026-04-20 19:41 57.53863 -4.04888 27 ft 1 kts 139°
2026-04-20 19:41 57.53865 -4.04884 27 ft 0 kts 12°